Location: *
(45.0500°N, 12.0500°E)
Time: 22:20:58
(UTC+00:00)

USA 32 - Pass Details

Date: 09 April 2020
Orbit: 777 x 783 km, 85.0° (Epoch: 22 April)

Event Time Altitude Azimuth Distance (km) Brightness Sun altitude
Rises 20:18:41 0° 356° (N) 3,272 7.9 -24.1°
Reaches altitude 10° 20:21:04 10° 359° (N) 2,339 7.0 -24.4°
Maximum altitude 20:26:18 70° 83° (E) 829 3.9 -25.1°
Enters shadow 20:26:23 70° 91° (E) 830 3.9 -25.1°
